{"data":{"norad_id":40732,"intl_designator":"2015-034A","name":"METEOSAT-11 (MSG-4)","alt_names":[],"object_type":"PAYLOAD","status":"ACTIVE","operator":null,"country":"EUME","launch_date":"2015-07-15","launch_site_code":"FRGUI","launch_vehicle":null,"mission":null,"orbit_class":"UNKNOWN","rcs_meters":4.001,"size_class":null,"mass_kg":null,"dimensions":null,"purposes":["comms","earth_obs"],"wikipedia_slug":null,"has_3d_model":false,"image_url":null,"decayed_at":null,"tle_current":{"epoch":"2026-09-19T23:51:26.700192Z","epoch_age_seconds":58159,"freshness":"FRESH","line1":"1 40732U 15034A   26262.99405903  .00000059  00000+0  00000+0 0  9998","line2":"2 40732   3.4336  70.4184 0000536  85.7474 209.8731  1.00274654  8164","mean_motion":1.00274654,"eccentricity":5.36e-5,"inclination_deg":3.4336,"raan_deg":70.4184,"arg_perigee_deg":85.7474,"mean_anomaly_deg":209.8731,"bstar":0,"rev_number":816,"period_min":1436.0558152612,"perigee_km":35783.530708995,"apogee_km":35788.050682044,"semimajor_km":42163.927695519,"source":"CELESTRAK","updated_at":"2026-09-20T09:00:35.217304Z"}}}